Regional Weather Roundup
Issued by NWS

Home | Current Version | Previous Version | Text Only | Print | Product List | Glossary On
Versions: 1 2 3 4 5 6 7 8 9 10 11 12 13 14 15 16 17 18 19 20 21 22 23 24 25 26 27 28 29 30 31 32 33 34 35 36 37 38 39 40 41 42 43 44 45 46 47 48 49 50
000
ASUS43 KMPX 102110
RWRMN
WEATHER ROUNDUP FOR MINNESOTA
NATIONAL WEATHER SERVICE TWIN CITIES/CHANHASSEN MN
400 PM CDT THU JUL 10 2014


NOTE: "FAIR" INDICATES FEW OR NO CLOUDS BELOW 12,000 FEET WITH NO
SIGNIFICANT WEATHER AND/OR OBSTRUCTIONS TO VISIBILITY. N/A MEANS
CURRENT SKY AND/OR WEATHER CONDITIONS ARE NOT AVAILABLE.

MNZ060>063-068>070-102200-
   Twin Cities Metro

CITY           SKY/WX    TMP DP  RH WIND       PRES   REMARKS
TWIN CITIES    CLOUDY    84  58  40 SW13      29.99F
ST PAUL        MOSUNNY   82  60  47 S14       29.99F
CRYSTAL        PTSUNNY   84  59  42 S12       29.97F
BLAINE         PTSUNNY   82  63  51 S9        29.99F
LAKEVILLE      MOSUNNY   81  61  50 S9G20     30.01S
EDEN PRAIRIE   PTSUNNY   82  60  47 S15G21    29.98F
SOUTH ST PAUL  MOSUNNY   83  58  42 SW13      29.99F
LAKE ELMO      FAIR      81  64  57 S12       30.01F
$$
MNZ001>005-007-008-013>017-022>024-027-028-102200-
   Northwest Minnesota

CITY           SKY/WX    TMP DP  RH WIND       PRES   REMARKS
BEMIDJI        PTSUNNY   77  57  48 S9        29.96S
HALLOCK        CLOUDY    79  59  50 S14G20    29.85F
ROSEAU         PTSUNNY   79  63  57 S12G18    29.90F
WARROAD        PTSUNNY   79  61  53 S9        29.91F
THIEF RVR FALL CLOUDY    77  57  50 S12G18    29.90F
CROOKSTON      CLOUDY    79  61  53 S10       29.88F
FOSSTON        CLOUDY    75  59  57 SE9       29.93F
DETROIT LAKES  CLOUDY    79  61  53 SE12      29.94F
MOORHEAD       PTSUNNY   82  57  42 S12       29.89S
PARK RAPIDS    CLOUDY    78  59  51 S14       29.96S
$$
MNZ006-009>011-018-025>026-102200-
   North Central Minnesota

CITY           SKY/WX    TMP DP  RH WIND       PRES   REMARKS
BAUDETTE       PTSUNNY   77  56  48 S12       29.94S
FLAG ISLAND    MOSUNNY   72  61  68 S12       29.90F
INTL FALLS     SUNNY     77  51  40 SW6       29.94F
WASKISH        MOSUNNY   79  57  47 SW5       29.95S
BIG FORK       MOSUNNY   81  55  41 S7        29.97F
LONGVILLE      MOSUNNY   79  59  50 S9        29.97F
GRAND RAPIDS   SUNNY     77  55  47 S12       29.98F
CRANE LAKE     SUNNY     77  48  36 S8        29.97F
ORR            SUNNY     79  46  31 SW7       29.95R
COOK           SUNNY     79  50  36 S9        29.98R
$$
MNZ012-019>021-037-102200-
   Northeast Minnesota

CITY           SKY/WX    TMP DP  RH WIND       PRES   REMARKS
DULUTH         MOSUNNY   76  58  53 SE9       30.01F
ELY            MOSUNNY   79  48  34 S7        29.98F
HIBBING        SUNNY     81  45  28 VRB6      29.98F
EVELETH        SUNNY     77  50  38 S10       30.00S
DULUTH HARBOR  SUNNY     59  54  82 NE5       30.02F
TWO HARBORS    SUNNY     73  57  56 E6        29.99F
SILVER BAY     SUNNY     72  61  68 E7        30.00F
GRAND MARAIS     N/A     56  47  71 E6        30.05F
G MARAIS ARPRT SUNNY     68  52  56 S8        30.07F
$$
MNZ029>031-032-039>041-046>048-054>057-064-102200-
   West Central Minnesota

CITY           SKY/WX    TMP DP  RH WIND       PRES   REMARKS
FERGUS FALLS   PTSUNNY   81  59  47 S12G21    29.89F
WHEATON        PTSUNNY   77  61  57 S14G20    29.90S
MORRIS         PTSUNNY   81  64  57 S15       29.91S
ALEXANDRIA     CLOUDY    81  60  48 S20       29.95F
ELBOW LAKE     PTSUNNY   81  63  54 S17       29.91
WADENA         CLOUDY    81  61  50 SE10      29.94F
GLENWOOD       CLOUDY    82  63  51 S14       29.96S
APPLETON       CLOUDY    84  61  45 S12G18    29.91S
BENSON         CLOUDY    82  63  51 SW13      29.93R
ORTONVILLE     PTSUNNY   81  63  54 S9        29.91S
MADISON        PTSUNNY   84  64  51 S13G21    29.91S
WILLMAR        FAIR      82  59  44 S7        29.96S
$$
MNZ033>034-036-042>043-049>051-058-059-102200-
   Central Minnesota

CITY           SKY/WX    TMP DP  RH WIND       PRES   REMARKS
ST CLOUD       PTSUNNY   84  59  42 S10       29.97S
SAUK CENTRE    FAIR      82  62  51 SE17G23   29.95F
PAYNESVILLE    CLOUDY    80  62  54 SE12      29.97F
AITKIN         MOSUNNY   82  61  47 SE12      29.97F
PINE RIVER     PTSUNNY   79  61  53 S8        30.00S
BRAINERD       PTSUNNY   85  59  41 S12       29.98S
STAPLES        CLOUDY    79  61  53 S10       29.96F
LONG PRAIRIE   FAIR      81  61  50 SE10G16   29.96F
LITTLE FALLS   CLOUDY    81  55  41 S9        29.97F
LITCHFIELD     CLOUDY    84  63  48 S7        29.97S
BUFFALO        PTSUNNY   83  58  41 S9G17     29.99S
MAPLE LAKE     PTSUNNY   84  64  49 S5        29.99S
$$
MNZ037-044-045-052-053-102200-
   East Central Minnesota

CITY           SKY/WX    TMP DP  RH WIND       PRES   REMARKS
PRINCETON      PTSUNNY   82  63  51 SE12      29.98F
MORA           MOSUNNY   79  57  47 S8        30.00F
CAMBRIDGE      MOSUNNY   82  64  54 SE6       29.97F
RUSH CITY      MOSUNNY   80  61  51 S8        30.00F
MOOSE LAKE     MOSUNNY   81  57  44 S8        29.98F
HINCKLEY       MOCLDY    81  63  54 S10       30.00S
CLOQUET        MOSUNNY   79  52  38 S9        30.00F
MCGREGOR       MOSUNNY   81  59  47 S9G17     29.99F
$$
MNZ071>073-080-081-089-090-097-098-102200-
   Southwest Minnesota

CITY           SKY/WX    TMP DP  RH WIND       PRES   REMARKS
MONTEVIDEO     CLOUDY    84  63  48 SW10G18   29.93S
GRANITE FALLS  CLOUDY    84  63  48 S16G23    29.94F
CANBY          CLOUDY    81  62  52 S9        29.93S
MARSHALL       CLOUDY    82  63  51 S20       29.93F
REDWOOD FALLS  CLOUDY    84  60  44 S17       29.94F
OLIVIA         CLOUDY    82  61  47 S10G18    29.95F
PIPESTONE      CLOUDY    79  61  53 S14G22    29.97S
WINDOM         PTSUNNY   82  63  51 S12G21    29.98F
WORTHINGTON    PTSUNNY   79  63  57 S15G21    30.00S
JACKSON        PTSUNNY   81  59  47 S15G22    30.01S
TRACY          PTSUNNY   82  63  51 S13G22    29.96S
SLAYTON        PTSUNNY   80  59  48 S15G23    29.99S
$$
MNZ065>067-074>077-082>085-091>093-102200-
   South Central Minnesota

CITY           SKY/WX    TMP DP  RH WIND       PRES   REMARKS
MANKATO        MOSUNNY   82  57  42 S14G23    30.00S
NEW ULM        PTSUNNY   82  61  47 S16G22    29.97F
ST JAMES       PTSUNNY   84  59  42 S15       29.99S
FAIRMONT       MOSUNNY   82  57  42 S15G25    30.01S
GLENCOE        PTSUNNY   83  57  40 S13       29.98F
FARIBAULT      MOSUNNY   84  52  32 S9G18     30.02F
OWATONNA       MOSUNNY   82  57  42 S12G22    30.03F
WASECA         MOSUNNY   81  52  36 S13G20    30.03F
ALBERT LEA     SUNNY     82  57  42 S13G20    30.03F
$$
MNZ078>079-086>088-094>096-102200-
   Southeast Minnesota

CITY           SKY/WX    TMP DP  RH WIND       PRES   REMARKS
ROCHESTER      MOSUNNY   79  62  56 S14       30.07S
RED WING       PTSUNNY   84  61  45 SW8       30.01S
STANTON        MOSUNNY   84  60  43 S9G17     30.00F
DODGE CENTER   MOSUNNY   81  61  50 S14G20    30.05F
WINONA         MOSUNNY   81  63  54 SW7       30.04F
AUSTIN         MOSUNNY   81  57  44 S13       30.05S
PRESTON        MOSUNNY   81  62  53 S12       30.08S
$$
ABBREVIATIONS USED IN REMARKS
   TC - TEMPERATURES IN CELSIUS
  WCI - WIND CHILL INDEX
   HX - HEAT INDEX
  VSB - VISIBILITY
$$


USA.gov is the U.S. government's official web portal to all federal, state and local government web resources and services.